When you browse on this site, cookies collect data to enhance your experience and personalize the content and advertising you see.
Visit our Privacy Policy to learn more. By continuing to use the site, you agree to this use of cookies and data.
  • In Hungary
  • List of Countries
  • For 7 days
  • Water Temperature
  • Weather Map
  • News
  • Weather Widgets
  • user-avatar
    Login

    Hourly Weather Siracusa

    Today, 17 November, Sunday

    Time Temperature Precipitation Wind Pressure Humidity
    00:00 +17°C° 0 mm 9 mps 752 mmHg 85%
    01:00 +17°C° 0 mm 9 mps 752 mmHg 88%
    02:00 +17°C° 0 mm 9 mps 752 mmHg 89%
    03:00 +17°C° 0 mm 9 mps 751 mmHg 90%
    04:00 +17°C° 0 mm 9 mps 751 mmHg 91%
    05:00 +17°C° 0 mm 9 mps 751 mmHg 91%
    06:00 +17°C° 0 mm 9 mps 751 mmHg 92%
    07:00 +17°C° 0 mm 9 mps 751 mmHg 92%
    08:00 +18°C° 0.1 mm 8 mps 752 mmHg 86%
    09:00 +18°C° 0.1 mm 8 mps 752 mmHg 80%
    10:00 +20°C° 0.1 mm 7 mps 752 mmHg 74%
    11:00 +20°C° 0 mm 7 mps 752 mmHg 69%
    12:00 +18°C° 0 mm 8 mps 752 mmHg 64%
    13:00 +18°C° 0 mm 8 mps 752 mmHg 59%
    14:00 +16°C° 0 mm 8 mps 753 mmHg 63%
    15:00 +13°C° 0 mm 8 mps 753 mmHg 68%
    16:00 +12°C° 0 mm 8 mps 753 mmHg 73%
    17:00 +11°C° 0 mm 8 mps 754 mmHg 76%
    18:00 +11°C° 0 mm 9 mps 754 mmHg 79%
    19:00 +11°C° 0 mm 10 mps 755 mmHg 82%
    20:00 +11°C° 0 mm 8 mps 755 mmHg 83%
    21:00 +11°C° 0 mm 7 mps 756 mmHg 85%
    22:00 +11°C° 0 mm 6 mps 756 mmHg 86%
    23:00 +10°C° 0 mm 6 mps 757 mmHg 84%

    Tomorrow, 18 November, Monday

    Time Temperature Precipitation Wind Pressure Humidity
    00:00 +10°C° 0 mm 6 mps 757 mmHg 82%
    01:00 +10°C° 0 mm 5 mps 757 mmHg 80%
    02:00 +10°C° 0 mm 5 mps 757 mmHg 81%
    03:00 +10°C° 0 mm 5 mps 757 mmHg 82%
    04:00 +10°C° 0 mm 5 mps 757 mmHg 82%
    05:00 +11°C° 0 mm 4 mps 757 mmHg 83%
    06:00 +11°C° 0 mm 4 mps 758 mmHg 83%
    07:00 +10°C° 0 mm 4 mps 758 mmHg 84%
    08:00 +12°C° 0 mm 3 mps 758 mmHg 77%
    09:00 +14°C° 0 mm 3 mps 759 mmHg 71%
    10:00 +17°C° 0 mm 3 mps 759 mmHg 64%
    11:00 +17°C° 0 mm 3 mps 759 mmHg 63%
    12:00 +18°C° 0 mm 3 mps 758 mmHg 62%
    13:00 +18°C° 0 mm 3 mps 758 mmHg 60%
    14:00 +18°C° 0 mm 4 mps 758 mmHg 62%
    15:00 +17°C° 0 mm 4 mps 758 mmHg 64%
    16:00 +15°C° 0 mm 4 mps 758 mmHg 66%
    17:00 +14°C° 0 mm 4 mps 758 mmHg 67%
    18:00 +13°C° 0 mm 4 mps 758 mmHg 67%
    19:00 +13°C° 0 mm 3 mps 758 mmHg 68%
    20:00 +13°C° 0 mm 4 mps 758 mmHg 70%
    21:00 +13°C° 0 mm 4 mps 758 mmHg 71%
    22:00 +13°C° 0 mm 5 mps 759 mmHg 73%
    23:00 +13°C° 0 mm 5 mps 758 mmHg 74%

    Day after tomorrow, 19 November, Tuesday

    Time Temperature Precipitation Wind Pressure Humidity
    00:00 +14°C° 0 mm 5 mps 758 mmHg 74%
    01:00 +14°C° 0 mm 6 mps 758 mmHg 75%
    02:00 +14°C° 0 mm 6 mps 758 mmHg 77%
    03:00 +13°C° 0 mm 6 mps 758 mmHg 79%
    04:00 +13°C° 0 mm 6 mps 758 mmHg 81%
    05:00 +13°C° 0 mm 5 mps 758 mmHg 82%
    06:00 +13°C° 0 mm 5 mps 758 mmHg 83%
    07:00 +13°C° 0 mm 5 mps 757 mmHg 84%
    08:00 +13°C° 0.3 mm 6 mps 758 mmHg 84%
    09:00 +14°C° 0.3 mm 6 mps 758 mmHg 85%
    10:00 +14°C° 0.3 mm 7 mps 758 mmHg 85%
    11:00 +14°C° 2.6 mm 7 mps 758 mmHg 88%
    12:00 +12°C° 2.6 mm 8 mps 757 mmHg 90%
    13:00 +12°C° 2.6 mm 8 mps 757 mmHg 93%
    14:00 +13°C° 1.8 mm 6 mps 757 mmHg 89%
    15:00 +14°C° 1.8 mm 4 mps 757 mmHg 85%
    16:00 +15°C° 1.8 mm 2 mps 757 mmHg 81%
    17:00 +13°C° 0.1 mm 3 mps 757 mmHg 84%
    18:00 +12°C° 0.1 mm 3 mps 757 mmHg 87%
    19:00 +11°C° 0.1 mm 4 mps 757 mmHg 90%
    20:00 +11°C° 0 mm 4 mps 757 mmHg 91%
    21:00 +10°C° 0 mm 5 mps 757 mmHg 92%
    22:00 +10°C° 0 mm 6 mps 758 mmHg 92%
    23:00 +10°C° 0 mm 6 mps 758 mmHg 91%

    20 November, Wednesday

    Time Temperature Precipitation Wind Pressure Humidity
    00:00 +10°C° 0 mm 6 mps 758 mmHg 90%
    01:00 +10°C° 0 mm 6 mps 758 mmHg 89%
    02:00 +10°C° 0 mm 6 mps 758 mmHg 89%
    03:00 +10°C° 0 mm 5 mps 758 mmHg 88%
    04:00 +11°C° 0 mm 4 mps 758 mmHg 87%
    05:00 +10°C° 0 mm 4 mps 758 mmHg 84%
    06:00 +10°C° 0 mm 3 mps 758 mmHg 82%
    07:00 +10°C° 0 mm 3 mps 759 mmHg 79%
    08:00 +12°C° 0 mm 3 mps 759 mmHg 74%
    09:00 +14°C° 0 mm 2 mps 759 mmHg 69%
    10:00 +16°C° 0 mm 2 mps 760 mmHg 64%
    11:00 +16°C° 0 mm 2 mps 760 mmHg 61%
    12:00 +17°C° 0 mm 2 mps 759 mmHg 59%
    13:00 +19°C° 0 mm 1 mps 759 mmHg 56%
    14:00 +18°C° 0 mm 1 mps 759 mmHg 63%
    15:00 +16°C° 0 mm 1 mps 759 mmHg 69%
    16:00 +15°C° 0 mm 1 mps 759 mmHg 76%
    17:00 +14°C° 0 mm 1 mps 759 mmHg 79%
    18:00 +13°C° 0 mm 1 mps 759 mmHg 82%
    19:00 +12°C° 0 mm 1 mps 759 mmHg 86%
    20:00 +12°C° 0 mm 1 mps 759 mmHg 85%
    21:00 +12°C° 0 mm 1 mps 759 mmHg 85%
    22:00 +12°C° 0 mm 1 mps 760 mmHg 84%
    23:00 +12°C° 0 mm 1 mps 759 mmHg 84%

    21 November, Thursday

    Time Temperature Precipitation Wind Pressure Humidity
    00:00 +10°C° 0 mm 2 mps 759 mmHg 84%
    01:00 +10°C° 0 mm 2 mps 759 mmHg 84%
    02:00 +10°C° 0 mm 2 mps 759 mmHg 84%
    03:00 +10°C° 0 mm 2 mps 759 mmHg 85%
    04:00 +10°C° 0 mm 2 mps 758 mmHg 85%
    05:00 +10°C° 0 mm 2 mps 758 mmHg 85%
    06:00 +10°C° 0 mm 2 mps 758 mmHg 85%
    07:00 +10°C° 0 mm 2 mps 759 mmHg 85%
    08:00 +12°C° 0 mm 2 mps 759 mmHg 81%
    09:00 +14°C° 0 mm 2 mps 759 mmHg 76%
    10:00 +15°C° 0 mm 2 mps 759 mmHg 72%
    11:00 +16°C° 0 mm 2 mps 758 mmHg 68%
    12:00 +17°C° 0 mm 2 mps 758 mmHg 63%
    13:00 +17°C° 0 mm 2 mps 758 mmHg 59%
    14:00 +16°C° 0 mm 1 mps 758 mmHg 64%
    15:00 +16°C° 0 mm 1 mps 758 mmHg 69%
    16:00 +15°C° 0 mm 1 mps 758 mmHg 74%
    17:00 +14°C° 0 mm 1 mps 758 mmHg 78%
    18:00 +13°C° 0 mm 1 mps 758 mmHg 82%
    19:00 +12°C° 0 mm 1 mps 758 mmHg 86%
    20:00 +12°C° 0 mm 1 mps 759 mmHg 83%
    21:00 +12°C° 0 mm 1 mps 759 mmHg 80%
    22:00 +12°C° 0 mm 1 mps 759 mmHg 78%
    23:00 +11°C° 0 mm 1 mps 759 mmHg 76%

    22 November, Friday

    Time Temperature Precipitation Wind Pressure Humidity
    00:00 +10°C° 0 mm 2 mps 759 mmHg 74%
    01:00 +10°C° 0 mm 2 mps 759 mmHg 72%
    02:00 +10°C° 0 mm 2 mps 759 mmHg 71%
    03:00 +10°C° 0 mm 2 mps 759 mmHg 71%
    04:00 +10°C° 0 mm 2 mps 759 mmHg 71%
    05:00 +9°C° 0 mm 2 mps 759 mmHg 71%
    06:00 +9°C° 0 mm 2 mps 759 mmHg 71%
    07:00 +9°C° 0 mm 2 mps 759 mmHg 71%
    08:00 +12°C° 0 mm 1 mps 759 mmHg 68%
    09:00 +14°C° 0 mm 1 mps 759 mmHg 64%
    10:00 +16°C° 0 mm 1 mps 760 mmHg 61%
    11:00 +16°C° 0 mm 1 mps 759 mmHg 60%
    12:00 +18°C° 0 mm 1 mps 759 mmHg 59%
    13:00 +18°C° 0 mm 1 mps 758 mmHg 58%
    14:00 +16°C° 0 mm 1 mps 758 mmHg 65%
    15:00 +16°C° 0 mm 1 mps 758 mmHg 71%
    16:00 +15°C° 0 mm 1 mps 758 mmHg 78%
    17:00 +14°C° 0 mm 1 mps 758 mmHg 81%
    18:00 +13°C° 0 mm 1 mps 758 mmHg 85%
    19:00 +12°C° 0 mm 1 mps 758 mmHg 88%
    20:00 +12°C° 0 mm 1 mps 759 mmHg 87%
    21:00 +12°C° 0 mm 1 mps 759 mmHg 86%
    22:00 +12°C° 0 mm 1 mps 759 mmHg 86%
    23:00 +12°C° 0 mm 1 mps 759 mmHg 85%
    Show more